1514318400.26,4142,9.38,72604.5,-8.23,-35.41,-35.65,0,*6C
1514318401.5,4143,9.44,72602.0,-8.23,-35.47,-35.77,0,*68
1514318402.75,4144,9.44,72600.3,-8.23,-35.47,-35.65,0,*6C
1514318403.98,4145,9.38,72600.3,-8.25,-35.47,-35.53,0,*6E
1514318405.25,4146,9.38,72600.0,-8.23,-35.41,-35.65,0,*68
1514318406.5,4147,9.38,72600.5,-8.23,-35.41,-35.47,0,*69
1514318407.75,4148,9.38,72604.0,-8.23,-35.41,-35.59,0,*69
1514318409.0,4149,9.38,72604.5,-8.23,-35.47,-35.65,0,*61
1514318410.25,4150,9.44,72606.0,-8.23,-35.41,-35.47,0,*6F
1514318411.5,4151,9.38,72606.5,-8.23,-35.41,-35.47,0,*6E
1514318412.75,4152,9.44,72606.8,-8.23,-35.41,-35.47,0,*6D
1514318414.0,4153,9.38,72600.8,-8.23,-35.35,-35.47,0,*6F
1514318415.25,4154,9.38,72606.5,-8.23,-35.47,-35.65,0,*6D
1514318416.5,4155,9.38,72606.0,-8.23,-35.47,-35.65,0,*6C
1514318417.73,4156,9.38,72608.5,-8.23,-35.47,-35.59,0,*60
1514318418.98,4157,9.38,72606.0,-8.23,-35.41,-35.47,0,*68
1514318420.23,4158,9.44,72608.5,-8.23,-35.41,-35.47,0,*67
1514318421.47,4159,9.44,72610.5,-8.23,-35.47,-35.77,0,*63
1514318422.7,4160,9.44,72606.5,-8.21,-35.47,-35.83,0,*60
1514318423.95,4161,9.38,72602.3,-8.23,-35.47,-35.65,0,*6B
1514318425.22,4162,9.44,72606.0,-8.23,-35.41,-35.65,0,*6E
1514318426.48,4163,9.38,72606.0,-8.23,-35.59,-35.95,0,*69
1514318427.7,4164,9.44,72604.0,-8.25,-35.65,-35.71,0,*6D
1514318428.93,4165,9.44,72606.0,-8.23,-35.59,-35.59,0,*6F
1514318430.14,4166,9.38,72604.5,-8.25,-35.53,-35.71,0,*6A
1514318431.35,4167,9.38,72602.8,-8.25,-35.47,-35.71,0,*6E
1514318432.57,4168,9.38,72606.3,-8.25,-35.47,-35.53,0,*61
1514318433.8,4169,9.44,72606.8,-8.25,-35.47,-35.53,0,*60
1514318435.03,4170,9.44,72608.0,-8.25,-35.47,-35.65,0,*6D
1514318436.27,4171,9.38,72606.0,-8.25,-35.53,-35.83,0,*61
1514318437.52,4172,9.38,72606.0,-8.27,-35.47,-35.65,0,*6D
1514318438.78,4173,9.44,72608.3,-8.27,-35.53,-35.65,0,*69
1514318440.03,4174,9.38,72604.5,-8.25,-35.65,-35.65,0,*69
1514318441.28,4175,9.38,72606.5,-8.25,-35.53,-35.83,0,*65
1514318442.52,4176,9.38,72600.3,-8.27,-35.53,-35.71,0,*69
1514318443.77,4177,9.44,72604.3,-8.25,-35.65,-35.83,0,*62
1514318444.99,4178,9.44,72606.0,-8.25,-35.53,-35.71,0,*65
1514318446.21,4179,9.44,72604.0,-8.25,-35.53,-35.71,0,*64
1514318447.43,4180,9.38,72602.0,-8.27,-35.47,-35.71,0,*65
1514318448.68,4181,9.38,72600.8,-8.25,-35.53,-35.83,0,*6E
1514318449.91,4182,9.38,72598.5,-8.25,-35.65,-35.89,0,*62
1514318451.14,4183,9.38,72596.5,-8.23,-35.47,-35.77,0,*64
1514318452.39,4184,9.38,72602.5,-8.25,-35.53,-35.83,0,*6B
1514318453.63,4185,9.44,72604.8,-8.27,-35.53,-35.71,0,*65
1514318454.88,4186,9.38,72606.0,-8.27,-35.53,-35.71,0,*66
1514318456.14,4187,9.44,72608.0,-8.27,-35.53,-35.65,0,*62
1514318457.41,4188,9.38,72602.5,-8.27,-35.53,-35.41,0,*6B
1514318458.66,4189,9.38,72594.3,-8.27,-34.53,-34.71,0,*69
1514318459.92,4190,9.44,72598.0,-8.27,-34.59,-35.07,0,*6B
1514318461.18,4191,9.38,72596.8,-8.27,-34.53,-35.13,0,*65
1514318462.45,4192,9.38,72594.8,-8.27,-35.23,-35.65,0,*61
1514318463.65,4193,9.44,72600.5,-8.25,-35.47,-35.71,0,*65
1514318464.88,4194,9.44,72598.8,-8.25,-35.47,-35.65,0,*67
1514318466.13,4195,9.44,72602.0,-8.27,-35.47,-35.65,0,*64
1514318467.38,4196,9.44,72598.0,-8.27,-35.47,-35.53,0,*62
1514318468.6,4197,9.44,72596.3,-8.27,-35.47,-35.71,0,*63
1514318469.83,4198,9.38,72600.0,-8.27,-35.47,-35.47,0,*69
1514318471.05,4199,9.38,72600.0,-8.27,-35.47,-35.47,0,*68
1514318472.3,4200,9.38,72600.5,-8.27,-35.47,-35.53,0,*6E
1514318473.55,4201,9.38,72602.0,-8.27,-35.47,-35.65,0,*6A
1514318474.82,4202,9.44,72604.3,-8.27,-35.53,-35.65,0,*6C
1514318476.06,4203,9.38,72602.0,-8.27,-35.47,-35.65,0,*68
1514318477.31,4204,9.44,72608.3,-8.27,-35.47,-35.65,0,*6F
1514318478.56,4205,9.38,72600.5,-8.27,-35.47,-35.65,0,*6E
1514318479.8,4206,9.38,72604.5,-8.27,-35.53,-35.71,0,*6D
1514318481.02,4207,9.44,72606.8,-8.25,-35.53,-35.71,0,*6E
1514318482.29,4208,9.38,72600.3,-8.27,-35.41,-35.65,0,*65
1514318483.5,4209,9.38,72600.3,-8.29,-35.59,-35.77,0,*60
1514318484.71,4210,9.44,72606.0,-8.29,-35.59,-35.77,0,*68
1514318485.91,4211,9.38,72604.3,-8.29,-35.59,-35.71,0,*6F
1514318487.15,4212,9.44,72608.8,-8.27,-35.47,-35.65,0,*68
1514318488.38,4213,9.44,72606.5,-8.29,-35.53,-35.59,0,*6D
1514318489.61,4214,9.38,72604.3,-8.29,-35.53,-35.89,0,*67
1514318490.83,4215,9.44,72608.8,-8.29,-35.53,-35.71,0,*61
1514318492.04,4216,9.38,72606.8,-8.29,-35.71,-35.77,0,*64
1514318493.26,4217,9.38,72606.3,-8.29,-35.53,-35.71,0,*63
1514318494.49,4218,9.44,72610.3,-8.29,-35.53,-35.71,0,*6C
1514318495.7,4219,9.44,72610.0,-8.33,-35.53,-35.59,0,*6C
1514318496.93,4220,9.38,72606.8,-8.29,-35.53,-35.71,0,*67
1514318498.13,4221,9.44,72612.5,-8.29,-35.59,-35.71,0,*6C
1514318499.35,4222,9.38,72608.5,-8.29,-35.53,-35.59,0,*6F
1514318500.57,4223,9.38,72610.8,-8.29,-35.53,-35.71,0,*64
1514318501.79,4224,9.38,72608.0,-8.29,-35.53,-35.71,0,*63
1514318503.02,4225,9.38,72608.0,-8.29,-35.53,-35.59,0,*68
1514318504.22,4226,9.38,72610.3,-8.29,-35.59,-35.59,0,*61
1514318505.46,4227,9.44,72614.0,-8.33,-35.53,-35.53,0,*6B
1514318506.68,4228,9.44,72614.3,-8.29,-35.53,-35.59,0,*65
1514318507.91,4229,9.44,72620.3,-8.29,-35.53,-35.59,0,*64
1514318509.13,4230,9.44,72616.8,-8.29,-35.53,-35.71,0,*66
1514318510.34,4231,9.44,72616.0,-8.33,-35.53,-35.71,0,*6C
1514318511.59,4232,9.44,72614.0,-8.29,-35.53,-35.53,0,*64
1514318512.8,4233,9.38,72612.5,-8.29,-35.47,-35.47,0,*65
1514318514.01,4234,9.44,72614.3,-8.29,-35.13,-35.13,0,*62
1514318515.25,4235,9.44,72608.3,-8.29,-34.95,-35.01,0,*6F
1514318516.45,4236,9.38,72606.8,-8.29,-35.13,-35.17,0,*64
1514318517.66,4237,9.44,72610.0,-8.29,-34.59,-34.59,0,*61
1514318518.89,4238,9.44,72610.0,-8.33,-34.41,-33.49,0,*6A
1514318520.12,4239,9.44,72608.0,-8.29,-33.31,-32.13,0,*6E
1514318521.35,4240,9.38,72604.5,-8.29,-31.67,-32.75,0,*61
1514318522.6,4241,9.44,72608.3,-8.33,-31.51,-33.49,0,*60
1514318523.83,4242,9.44,72612.0,-8.33,-31.73,-33.37,0,*6A
1514318525.09,4243,9.44,72614.0,-8.29,-31.73,-33.73,0,*60
1514318526.33,4244,9.38,72616.0,-8.29,-33.09,-35.13,0,*68
1514318527.56,4245,9.38,72612.0,-8.29,-34.31,-35.47,0,*64
1514318528.8,4246,9.44,72614.8,-8.29,-35.01,-35.53,0,*60
1514318530.05,4247,9.44,72618.8,-8.27,-35.23,-35.47,0,*6A
1514318531.31,4248,9.44,72614.5,-8.27,-35.29,-35.53,0,*6A
1514318532.55,4249,9.44,72606.8,-8.27,-35.47,-35.65,0,*66
1514318533.78,4250,9.44,72612.8,-8.27,-35.47,-35.71,0,*6B
1514318535.04,4251,9.38,72608.5,-8.27,-35.53,-35.65,0,*6A
1514318536.29,4252,9.44,72610.3,-8.27,-35.41,-35.47,0,*6A
1514318537.54,4253,9.44,72610.0,-8.27,-35.47,-35.53,0,*68
1514318538.76,4254,9.38,72608.3,-8.29,-35.53,-35.71,0,*64
1514318539.97,4255,9.44,72612.3,-8.29,-35.59,-35.77,0,*69
1514318541.17,4256,9.44,72612.0,-8.29,-35.59,-35.59,0,*66
1514318542.42,4257,9.44,72614.0,-8.33,-35.53,-35.53,0,*6C
1514318543.62,4258,9.44,72618.3,-8.29,-35.59,-35.59,0,*68
1514318544.82,4259,9.38,72612.5,-8.29,-35.59,-35.59,0,*69
1514318546.02,4260,9.44,72614.3,-8.33,-35.59,-35.59,0,*68
1514318547.27,4261,9.44,72616.3,-8.29,-35.53,-35.53,0,*62
1514318548.49,4262,9.44,72612.0,-8.29,-35.53,-35.59,0,*6B
1514318549.71,4263,9.44,72612.5,-8.29,-35.53,-35.71,0,*60
1514318550.91,4264,9.44,72616.5,-8.29,-35.59,-35.71,0,*6D
1514318552.11,4265,9.44,72614.0,-8.33,-35.59,-35.71,0,*67
1514318553.31,4266,9.44,72612.8,-8.29,-35.59,-35.71,0,*6F
1514318554.58,4267,9.44,72618.0,-8.27,-35.53,-35.65,0,*6F
1514318555.85,4268,9.38,72612.8,-8.27,-35.53,-35.53,0,*65
1514318557.05,4269,9.44,72612.8,-8.29,-35.59,-35.71,0,*60
1514318558.25,4270,9.38,72612.5,-8.29,-35.59,-35.71,0,*68
1514318559.47,4271,9.44,72618.5,-8.29,-35.53,-35.47,0,*66
1514318560.72,4272,9.44,72618.3,-8.29,-35.53,-35.53,0,*60
1514318561.94,4273,9.44,72616.0,-8.29,-35.53,-35.71,0,*61
1514318563.15,4274,9.44,72616.5,-8.29,-35.59,-35.59,0,*66
1514318564.39,4275,9.44,72618.3,-8.29,-35.53,-35.53,0,*67
1514318565.61,4276,9.44,72618.0,-8.29,-35.53,-35.59,0,*6E
1514318566.82,4277,9.44,72618.0,-8.29,-35.59,-35.59,0,*65
1514318568.02,4278,9.44,72616.0,-8.29,-35.59,-35.71,0,*60
1514318569.22,4279,9.44,72612.0,-8.33,-35.59,-35.71,0,*6A
1514318570.42,4280,9.38,72614.3,-8.33,-35.71,-35.71,0,*66
1514318571.65,4281,9.38,72612.3,-8.33,-35.47,-35.35,0,*62
1514318572.87,4282,9.44,72612.0,-8.29,-35.53,-35.59,0,*65
1514318574.09,4283,9.44,72616.8,-8.29,-35.53,-35.59,0,*64
1514318575.29,4284,9.44,72616.8,-8.29,-35.71,-35.71,0,*69
1514318576.5,4285,9.44,72618.8,-8.33,-35.71,-35.89,0,*64
1514318577.73,4286,9.44,72618.8,-8.29,-35.59,-35.53,0,*61
1514318578.95,4287,9.44,72614.8,-8.33,-35.53,-35.59,0,*6B
1514318580.17,4288,9.44,72616.0,-8.29,-35.53,-35.71,0,*65
1514318581.37,4289,9.44,72618.0,-8.29,-35.59,-35.71,0,*6E
1514318582.58,4290,9.44,72616.5,-8.29,-35.71,-35.71,0,*6C
1514318583.78,4291,9.44,72612.3,-8.29,-35.59,-35.59,0,*6D
1514318585.0,4292,9.44,72618.3,-8.33,-35.53,-35.71,0,*65
1514318586.21,4293,9.44,72614.8,-8.29,-35.71,-35.77,0,*69
1514318587.41,4294,9.44,72614.0,-8.33,-35.59,-35.59,0,*63
1514318588.61,4295,9.38,72614.5,-8.33,-35.71,-35.71,0,*62
1514318589.81,4296,9.44,72612.0,-8.33,-35.59,-35.59,0,*61
1514318591.01,4297,9.44,72618.3,-8.33,-35.59,-35.59,0,*60
1514318592.25,4298,9.44,72618.8,-8.33,-35.53,-35.53,0,*6F
1514318593.5,4299,9.44,72618.8,-8.33,-35.53,-35.53,0,*6E
1514318594.71,4300,9.44,72612.8,-8.33,-35.47,-35.29,0,*67
1514318595.95,4301,9.44,72616.3,-8.33,-35.53,-35.35,0,*6E
1514318597.19,4302,9.44,72620.0,-8.33,-35.53,-35.35,0,*6D
1514318598.42,4303,9.44,72616.5,-8.29,-35.53,-35.47,0,*62
1514318599.66,4304,9.44,72618.0,-8.33,-35.53,-35.53,0,*6B
1514318600.86,4305,9.44,72616.3,-8.33,-35.59,-35.59,0,*6A
1514318602.09,4306,9.44,72618.0,-8.33,-35.71,-35.53,0,*69
1514318603.29,4307,9.44,72616.3,-8.33,-35.59,-35.71,0,*62
1514318604.49,4308,9.44,72618.8,-8.33,-35.59,-35.71,0,*6D
1514318605.71,4309,9.44,72616.0,-8.33,-35.59,-35.53,0,*6C
1514318606.93,4310,9.38,72614.0,-8.33,-35.59,-35.53,0,*64
1514318608.17,4311,9.44,72616.8,-8.35,-35.77,-35.77,0,*69
1514318609.42,4312,9.44,72612.8,-8.35,-35.59,-35.53,0,*60
1514318610.65,4313,9.38,72612.3,-8.35,-35.59,-35.59,0,*6B
1514318611.9,4314,9.44,72616.3,-8.35,-35.65,-35.59,0,*63
1514318613.14,4315,9.44,72616.3,-8.37,-35.65,-35.65,0,*6F
1514318614.39,4316,9.44,72618.8,-8.35,-35.65,-35.59,0,*61
1514318615.61,4317,9.38,72612.0,-8.33,-35.47,-35.35,0,*6C
1514318616.89,4318,9.44,72616.3,-8.35,-35.53,-35.41,0,*63
1514318618.11,4319,9.44,72616.8,-8.35,-35.59,-35.59,0,*61
1514318619.39,4320,9.44,72618.0,-8.35,-35.65,-35.53,0,*6E
1514318620.65,4321,9.44,72620.3,-8.35,-35.53,-35.35,0,*6A
1514318621.9,4322,9.38,72616.0,-8.35,-35.59,-35.53,0,*63
1514318623.13,4323,9.44,72618.5,-8.35,-35.59,-35.59,0,*68
1514318624.4,4324,9.44,72622.3,-8.35,-35.53,-35.35,0,*6F
1514318625.65,4325,9.44,72620.8,-8.35,-35.59,-35.35,0,*64
1514318626.9,4326,9.44,72618.8,-8.35,-35.65,-35.59,0,*62
1514318628.16,4327,9.44,72620.0,-8.35,-35.53,-35.35,0,*6C
1514318629.41,4328,9.44,72620.0,-8.37,-35.35,-35.35,0,*61
1514318630.69,4329,9.44,72618.0,-8.35,-35.53,-35.41,0,*61
1514318631.91,4330,9.44,72620.0,-8.37,-35.59,-35.53,0,*62
1514318633.18,4331,9.44,72622.0,-8.35,-35.53,-35.35,0,*6B
1514318634.45,4332,9.44,72618.5,-8.35,-35.53,-35.41,0,*6B
1514318635.72,4333,9.44,72616.5,-8.35,-35.41,-35.23,0,*6D
1514318636.99,4334,9.44,72614.8,-8.35,-35.41,-35.35,0,*6D
1514318638.24,4335,9.44,72610.5,-8.35,-35.59,-35.53,0,*65
1514318639.51,4336,9.44,72610.5,-8.35,-35.53,-35.53,0,*6C
1514318640.74,4337,9.44,72612.0,-8.33,-35.53,-35.47,0,*6E
1514318641.96,4338,9.44,72610.8,-8.33,-35.53,-35.47,0,*61
1514318643.19,4339,9.44,72612.3,-8.33,-35.35,-35.29,0,*68
1514318644.41,4340,9.44,72614.0,-8.33,-35.53,-35.47,0,*6E
1514318645.63,4341,9.44,72614.0,-8.35,-35.59,-35.59,0,*6C
1514318646.88,4342,9.44,72616.0,-8.35,-35.59,-35.53,0,*65
1514318648.13,4343,9.44,72616.0,-8.35,-35.59,-35.53,0,*64
1514318649.4,4344,9.44,72614.5,-8.35,-35.53,-35.35,0,*69
1514318650.65,4345,9.44,72612.3,-8.35,-35.59,-35.53,0,*62
1514318651.92,4346,9.44,72610.8,-8.35,-35.53,-35.35,0,*6B
1514318653.19,4347,9.44,72614.3,-8.35,-35.53,-35.23,0,*6D
1514318654.44,4348,9.44,72610.8,-8.37,-35.41,-35.35,0,*64
1514318655.71,4349,9.44,72608.8,-8.35,-35.35,-35.23,0,*63
1514318656.98,4350,9.44,72616.8,-8.35,-35.23,-35.23,0,*6C
1514318658.26,4351,9.44,72612.3,-8.35,-35.41,-35.35,0,*6E
1514318659.48,4352,9.44,72614.3,-8.35,-35.17,-34.89,0,*68
1514318660.73,4353,9.38,72612.3,-8.35,-34.89,-35.07,0,*68
1514318662.0,4354,9.44,72612.8,-8.35,-35.23,-35.23,0,*68
1514318663.25,4355,9.38,72612.5,-8.35,-35.41,-35.17,0,*6A
1514318664.48,4356,9.44,72608.0,-8.35,-35.17,-35.01,0,*6D
1514318665.76,4357,9.44,72616.3,-8.35,-35.23,-35.41,0,*6F
1514318667.03,4358,9.44,72614.0,-8.35,-35.53,-35.41,0,*67
1514318668.25,4359,9.44,72612.0,-8.33,-35.35,-35.17,0,*63
1514318669.5,4360,9.44,72614.0,-8.35,-34.89,-34.83,0,*65
1514318670.76,4361,9.38,72610.0,-8.35,-34.83,-35.01,0,*65
1514318672.04,4362,9.44,72612.3,-8.35,-35.07,-35.07,0,*6D
1514318673.32,4363,9.44,72612.0,-8.35,-35.23,-35.23,0,*6C
1514318674.58,4364,9.44,72614.3,-8.35,-35.07,-35.01,0,*6D
1514318675.83,4365,9.44,72612.0,-8.35,-35.17,-35.07,0,*6B
1514318677.09,4366,9.44,72614.5,-8.35,-34.83,-35.01,0,*62
1514318678.32,4367,9.44,72614.0,-8.35,-34.89,-35.17,0,*6E
1514318679.55,4368,9.44,72614.5,-8.35,-35.17,-35.01,0,*60
1514318680.74,4369,9.44,72614.3,-8.37,-35.17,-35.17,0,*64
1514318681.96,4370,9.44,72614.0,-8.37,-35.17,-34.83,0,*60
1514318683.22,4371,9.44,72616.5,-8.35,-34.65,-34.89,0,*6D
1514318684.45,4372,9.44,72612.8,-8.37,-35.17,-35.41,0,*6D
1514318685.7,4373,9.44,72614.0,-8.35,-35.59,-35.53,0,*67
1514318686.97,4374,9.44,72612.0,-8.35,-35.53,-35.53,0,*6A
1514318688.19,4375,9.44,72612.5,-8.37,-35.59,-35.53,0,*63
1514318689.42,4376,9.44,72614.3,-8.37,-35.59,-35.41,0,*63
1514318690.66,4377,9.38,72610.8,-8.33,-35.53,-35.35,0,*6F
1514318691.89,4378,9.44,72614.0,-8.33,-35.59,-35.53,0,*6A
1514318693.14,4379,9.44,72614.3,-8.35,-35.59,-35.41,0,*6E
1514318694.37,4380,9.44,72612.5,-8.37,-35.59,-35.53,0,*69
1514318695.61,4381,9.44,72612.5,-8.37,-35.53,-35.23,0,*65
1514318696.83,4382,9.44,72614.8,-8.37,-35.59,-35.41,0,*68
1514318698.06,4383,9.44,72618.3,-8.37,-35.59,-35.41,0,*69
1514318699.28,4384,9.44,72614.5,-8.35,-35.59,-35.59,0,*65
1514318700.51,4385,9.44,72612.3,-8.37,-35.59,-35.53,0,*6C
1514318701.75,4386,9.44,72614.3,-8.35,-35.65,-35.59,0,*68
1514318702.98,4387,9.44,72612.3,-8.37,-35.59,-35.41,0,*6D
1514318704.2,4388,9.44,72612.8,-8.35,-35.59,-35.59,0,*69
1514318705.44,4389,9.44,72616.0,-8.37,-35.53,-35.23,0,*6D
1514318706.67,4390,9.44,72614.0,-8.37,-35.59,-35.41,0,*6B
1514318707.89,4391,9.44,72612.0,-8.37,-35.59,-35.41,0,*6A
1514318709.14,4392,9.44,72612.0,-8.37,-35.53,-35.35,0,*60
1514318710.36,4393,9.44,72608.8,-8.37,-35.59,-35.41,0,*68
1514318711.61,4394,9.44,72610.3,-8.37,-35.53,-35.35,0,*66
1514318712.86,4395,9.44,72610.5,-8.35,-35.59,-35.35,0,*6F
1514318714.11,4396,9.38,72608.8,-8.35,-35.59,-35.53,0,*6C
1514318715.36,4397,9.44,72608.5,-8.35,-35.59,-35.53,0,*6D
1514318716.63,4398,9.44,72612.8,-8.35,-35.53,-35.35,0,*68
1514318717.85,4399,9.44,72610.8,-8.37,-35.35,-35.17,0,*6B
1514318719.09,4400,9.44,72608.0,-8.37,-35.41,-35.23,0,*68
1514318720.34,4401,9.44,72610.3,-8.39,-35.59,-35.41,0,*6A
1514318721.58,4402,9.44,72606.8,-8.37,-35.53,-35.23,0,*69
1514318722.82,4403,9.38,72600.5,-8.37,-35.53,-35.23,0,*68
1514318724.07,4404,9.44,72610.0,-8.37,-35.53,-35.35,0,*68
1514318725.28,4405,9.44,72604.8,-8.37,-35.53,-35.17,0,*69
1514318726.51,4406,9.44,72606.8,-8.37,-35.59,-35.41,0,*63
1514318727.75,4407,9.38,72604.8,-8.37,-35.53,-35.35,0,*6B
1514318729.0,4408,9.44,72606.8,-8.37,-35.53,-35.41,0,*67
1514318730.22,4409,9.44,72606.0,-8.37,-35.59,-35.41,0,*6C
1514318731.47,4410,9.44,72604.0,-8.37,-35.53,-35.35,0,*6D
1514318732.69,4411,9.44,72606.8,-8.37,-35.17,-35.07,0,*6D
1514318733.91,4412,9.44,72604.5,-8.37,-35.35,-35.17,0,*6F
1514318735.16,4413,9.38,72606.5,-8.37,-35.53,-35.35,0,*6E
1514318736.4,4414,9.44,72608.0,-8.37,-35.53,-35.35,0,*69
1514318737.65,4415,9.44,72608.3,-8.37,-35.41,-35.23,0,*6C
1514318738.87,4416,9.44,72604.0,-8.37,-35.59,-35.41,0,*62
1514318740.12,4417,9.44,72608.3,-8.37,-35.53,-35.35,0,*6A
1514318741.37,4418,9.44,72608.3,-8.35,-35.59,-35.41,0,*6E
1514318742.59,4419,9.44,72610.5,-8.37,-35.59,-35.41,0,*6D
1514318743.81,4420,9.44,72610.5,-8.37,-35.59,-35.35,0,*64
1514318745.04,4421,9.44,72612.5,-8.37,-35.59,-35.41,0,*66
1514318746.27,4422,9.44,72608.5,-8.37,-35.59,-35.35,0,*66
1514318747.53,4423,9.44,72614.0,-8.35,-35.53,-35.41,0,*6C
1514318748.78,4424,9.44,72610.3,-8.37,-35.53,-35.41,0,*69
1514318750.01,4425,9.44,72610.0,-8.37,-35.59,-35.41,0,*62
1514318751.23,4426,9.44,72612.3,-8.37,-35.59,-35.41,0,*61
1514318752.45,4427,9.44,72612.5,-8.41,-35.65,-35.59,0,*67
1514318753.68,4428,9.44,72612.0,-8.39,-35.59,-35.47,0,*67
1514318754.93,4429,9.44,72612.8,-8.39,-35.47,-35.41,0,*6F
1514318756.16,4430,9.44,72612.5,-8.39,-35.47,-35.47,0,*61
1514318757.39,4431,9.44,72614.3,-8.39,-35.47,-35.29,0,*68
1514318758.61,4432,9.44,72610.8,-8.41,-35.65,-35.47,0,*6C
1514318759.86,4433,9.44,72610.5,-8.39,-35.65,-35.59,0,*6D
1514318761.06,4434,9.44,72614.8,-8.41,-35.59,-35.29,0,*6D
1514318762.31,4435,9.44,72616.3,-8.39,-35.41,-35.29,0,*6A
1514318763.56,4436,9.44,72614.8,-8.39,-35.65,-35.47,0,*67
1514318764.81,4437,9.44,72610.0,-8.39,-35.65,-35.47,0,*66
1514318766.03,4438,9.44,72610.0,-8.39,-35.59,-35.59,0,*69
1514318767.26,4439,9.44,72608.8,-8.39,-35.47,-35.47,0,*68
1514318768.48,4440,9.44,72610.8,-8.39,-35.59,-35.47,0,*69
1514318769.73,4441,9.44,72612.0,-8.39,-35.65,-35.47,0,*67
1514318770.98,4442,9.44,72616.5,-8.39,-35.47,-35.23,0,*66
1514318772.22,4443,9.44,72614.5,-8.39,-35.65,-35.47,0,*65
1514318773.47,4444,9.44,72614.5,-8.41,-35.41,-35.23,0,*69
1514318774.7,4445,9.44,72614.8,-8.39,-35.47,-35.29,0,*6B
1514318775.93,4446,9.44,72614.3,-8.39,-35.47,-35.29,0,*68
1514318777.18,4447,9.44,72610.3,-8.39,-35.41,-35.29,0,*6F
1514318778.41,4448,9.44,72612.5,-8.39,-35.47,-35.29,0,*66
1514318779.66,4449,9.44,72616.3,-8.39,-35.59,-35.41,0,*66
1514318780.91,4450,9.44,72618.0,-8.39,-35.65,-35.47,0,*67
1514318782.15,4451,9.44,72616.8,-8.39,-35.65,-35.59,0,*69
1514318783.4,4452,9.38,72612.5,-8.39,-35.59,-35.41,0,*6C
1514318784.62,4453,9.44,72616.0,-8.39,-35.59,-35.59,0,*64
1514318785.87,4454,9.44,72616.5,-8.39,-35.59,-35.41,0,*6A
1514318787.12,4455,9.44,72616.8,-8.39,-35.65,-35.47,0,*62
1514318788.34,4456,9.44,72622.3,-8.41,-35.65,-35.59,0,*61
1514318789.54,4457,9.44,72618.0,-8.41,-35.59,-35.47,0,*60
1514318790.74,4458,9.44,72622.0,-8.41,-35.59,-35.47,0,*6F
1514318791.99,4459,9.44,72616.8,-8.39,-35.65,-35.47,0,*6E
1514318793.19,4460,9.44,72618.8,-8.41,-35.59,-35.47,0,*64
1514318794.42,4461,9.44,72614.5,-8.41,-35.47,-35.41,0,*6C
1514318795.64,4462,9.44,72616.8,-8.41,-35.65,-35.47,0,*69
1514318796.91,4463,9.44,72618.8,-8.39,-35.65,-35.41,0,*61
1514318798.14,4464,9.44,72618.8,-8.41,-35.65,-35.47,0,*6F
1514318799.36,4465,9.44,72618.3,-8.41,-35.59,-35.41,0,*67
1514318800.59,4466,9.44,72616.3,-8.41,-35.41,-35.29,0,*63
1514318801.84,4467,9.44,72616.3,-8.41,-35.41,-35.07,0,*6E
1514318803.08,4468,9.44,72616.0,-8.39,-35.13,-35.07,0,*69
1514318804.28,4469,9.38,72614.0,-8.41,-34.77,-34.41,0,*67
1514318805.51,4470,9.44,72618.0,-8.41,-34.35,-34.71,0,*6A
1514318806.77,4471,9.44,72616.3,-8.39,-34.77,-34.95,0,*68
1514318807.98,4472,9.44,72618.8,-8.41,-34.71,-34.59,0,*62
1514318809.26,4473,9.38,72614.8,-8.39,-34.31,-34.01,0,*65
1514318810.51,4474,9.44,72616.8,-8.41,-34.19,-33.61,0,*66
1514318811.76,4475,9.44,72616.8,-8.39,-33.95,-34.31,0,*69
1514318813.01,4476,9.44,72614.5,-8.39,-34.77,-35.07,0,*65
1514318814.22,4477,9.44,72616.5,-8.41,-34.77,-34.71,0,*6B
1514318815.45,4478,9.44,72612.3,-8.41,-34.19,-34.59,0,*66
1514318816.67,4479,9.44,72616.0,-8.39,-34.41,-34.89,0,*68
1514318817.91,4480,9.44,72616.8,-8.39,-34.71,-35.13,0,*6F
1514318819.16,4481,9.44,72616.0,-8.39,-35.07,-34.89,0,*6C
1514318820.37,4482,9.44,72612.3,-8.41,-34.77,-34.71,0,*61
1514318821.65,4483,9.44,72612.0,-8.39,-34.53,-34.53,0,*69
1514318822.88,4484,9.44,72618.5,-8.43,-34.25,-35.13,0,*67
1514318824.11,4485,9.44,72616.0,-8.41,-34.59,-35.23,0,*6C
1514318825.35,4486,9.44,72614.5,-8.41,-35.07,-35.29,0,*6F
1514318826.59,4487,9.44,72614.0,-8.41,-35.41,-35.41,0,*62
1514318827.82,4488,9.44,72618.5,-8.41,-35.47,-35.41,0,*6B
1514318829.05,4489,9.44,72616.0,-8.41,-35.47,-35.41,0,*6A
1514318830.3,4490,9.44,72614.8,-8.41,-35.41,-35.41,0,*64
1514318831.55,4491,9.44,72616.8,-8.41,-35.41,-35.41,0,*65
1514318832.74,4492,9.44,72612.0,-8.41,-35.59,-35.59,0,*66
1514318833.97,4493,9.44,72618.8,-8.41,-35.47,-35.41,0,*61
1514318835.18,4494,9.44,72616.3,-8.41,-35.47,-35.29,0,*68
1514318836.38,4495,9.44,72614.8,-8.41,-35.47,-35.47,0,*61
1514318837.58,4496,9.44,72614.5,-8.41,-35.59,-35.47,0,*6D
1514318838.78,4497,9.44,72612.5,-8.41,-35.59,-35.47,0,*6C
1514318840.01,4498,9.44,72614.3,-8.41,-35.47,-35.41,0,*6A
1514318841.22,4499,9.44,72612.8,-8.41,-35.59,-35.29,0,*6A
1514318842.44,4500,9.44,72614.0,-8.41,-35.47,-35.41,0,*6A
1514318843.65,4501,9.44,72614.0,-8.41,-35.29,-35.13,0,*64
1514318844.86,4502,9.44,72612.5,-8.41,-35.47,-35.47,0,*6E
1514318846.1,4503,9.44,72612.0,-8.41,-35.41,-35.23,0,*6B
1514318847.32,4504,9.44,72614.8,-8.41,-35.13,-35.07,0,*6D
1514318848.58,4505,9.44,72612.0,-8.41,-35.07,-35.07,0,*69
1514318849.81,4506,9.44,72614.0,-8.41,-35.13,-35.41,0,*6D
1514318851.03,4507,9.44,72616.0,-8.41,-35.47,-35.41,0,*6D
1514318852.28,4508,9.44,72610.3,-8.39,-35.47,-35.41,0,*6D
1514318853.51,4509,9.44,72610.3,-8.41,-35.41,-35.29,0,*6B
1514318854.74,4510,9.44,72608.3,-8.41,-35.47,-35.41,0,*6B
1514318855.96,4511,9.44,72612.8,-8.41,-35.65,-35.47,0,*6C
1514318857.19,4512,9.44,72614.0,-8.41,-35.23,-35.13,0,*6C
1514318858.46,4513,9.44,72612.3,-8.43,-35.53,-35.35,0,*6C
1514318859.71,4514,9.44,72610.0,-8.41,-35.23,-35.23,0,*69
1514318860.94,4515,9.44,72606.8,-8.41,-35.07,-34.89,0,*6F
1514318862.16,4516,9.44,72608.5,-8.41,-34.19,-34.59,0,*6F
1514318863.4,4517,9.44,72612.3,-8.41,-34.01,-34.71,0,*6D
1514318864.63,4518,9.44,72608.3,-8.41,-34.59,-34.95,0,*65
1514318865.83,4519,9.44,72606.0,-8.41,-35.13,-35.13,0,*64
1514318867.06,4520,9.44,72608.5,-8.41,-35.13,-35.23,0,*6D
1514318868.31,4521,9.44,72610.3,-8.43,-35.29,-35.35,0,*60
1514318869.56,4522,9.44,72614.0,-8.41,-35.23,-35.41,0,*68
1514318870.81,4523,9.44,72612.0,-8.41,-35.23,-35.41,0,*69
1514318872.07,4524,9.44,72616.8,-8.41,-35.23,-35.41,0,*6E
1514318873.3,4525,9.44,72616.0,-8.41,-35.23,-35.29,0,*61
1514318874.51,4526,9.44,72612.5,-8.41,-35.29,-35.29,0,*68
1514318875.71,4527,9.44,72614.0,-8.41,-35.47,-35.47,0,*69
1514318876.92,4528,9.44,72616.0,-8.41,-35.47,-35.47,0,*66
1514318878.14,4529,9.44,72620.5,-8.41,-35.59,-35.41,0,*6E
1514318879.39,4530,9.44,72618.0,-8.41,-35.23,-35.07,0,*69
1514318880.6,4531,9.38,72610.8,-8.41,-35.29,-35.29,0,*6E
1514318881.83,4532,9.44,72612.8,-8.39,-35.59,-35.59,0,*62
1514318883.05,4533,9.44,72618.3,-8.41,-35.47,-35.41,0,*6A
1514318884.28,4534,9.44,72616.8,-8.41,-35.23,-35.13,0,*68
1514318885.51,4535,9.38,72614.0,-8.39,-35.47,-35.29,0,*6D
1514318886.76,4536,9.44,72618.3,-8.41,-35.41,-35.41,0,*69
1514318887.99,4537,9.44,72622.0,-8.41,-35.41,-35.29,0,*66
1514318889.26,4538,9.44,72618.8,-8.39,-35.23,-35.23,0,*68
1514318890.47,4539,9.44,72612.0,-8.41,-35.29,-35.29,0,*66
1514318891.7,4540,9.44,72612.0,-8.39,-35.47,-35.47,0,*67
1514318892.97,4541,9.44,72616.3,-8.39,-35.41,-35.41,0,*66
1514318894.18,4542,9.44,72616.8,-8.41,-35.47,-35.29,0,*62
1514318895.43,4543,9.44,72616.8,-8.39,-35.47,-35.41,0,*62
1514318896.67,4544,9.44,72620.8,-8.41,-35.41,-35.41,0,*6C
1514318897.9,4545,9.44,72620.3,-8.41,-35.41,-35.47,0,*6B
1514318899.15,4546,9.44,72616.5,-8.41,-35.23,-35.23,0,*6E
1514318900.4,4547,9.44,72614.0,-8.39,-35.23,-35.29,0,*6A
1514318901.63,4548,9.44,72616.8,-8.41,-35.41,-35.29,0,*6E
1514318902.88,4549,9.44,72616.5,-8.39,-35.41,-35.29,0,*60
1514318904.13,4550,9.44,72616.8,-8.41,-35.41,-35.41,0,*69
1514318905.36,4551,9.44,72616.5,-8.39,-35.47,-35.47,0,*67
1514318906.58,4552,9.44,72616.3,-8.39,-35.47,-35.47,0,*64
1514318907.81,4553,9.44,72618.0,-8.39,-35.59,-35.47,0,*6A
1514318909.06,4554,9.44,72618.0,-8.41,-35.41,-35.41,0,*6D
1514318910.28,4555,9.44,72620.5,-8.41,-35.41,-35.29,0,*62